When you browse on this site, cookies collect data to enhance your experience and personalize the content and advertising you see.
Visit our Privacy Policy to learn more. By continuing to use the site, you agree to this use of cookies and data.
  • en Suisse
  • Liste des pays
  • À 7 jours
  • Température de l'eau
  • Carte satellitaire
  • Carte météo
  • Widgets météo
  • user-avatar
    Se connecter

    Météo par heure à Kazinka

    Ce jour, 27 Juin, Jeudi

    Heure Température Précipitation Vent Pression Humidité
    00:00 +17°C° 0 mm 3 m/s 743 mmHg 87%
    01:00 +17°C° 0.2 mm 2 m/s 742 mmHg 90%
    02:00 +16°C° 0.2 mm 2 m/s 742 mmHg 92%
    03:00 +18°C° 0 mm 1 m/s 741 mmHg 92%
    04:00 +16°C° 0.2 mm 2 m/s 741 mmHg 93%
    05:00 +16°C° 0.2 mm 2 m/s 741 mmHg 95%
    06:00 +16°C° 0.2 mm 2 m/s 740 mmHg 96%
    07:00 +17°C° 0.2 mm 2 m/s 740 mmHg 94%
    08:00 +18°C° 0.2 mm 2 m/s 739 mmHg 92%
    09:00 +19°C° 0.2 mm 2 m/s 739 mmHg 89%
    10:00 +19°C° 1.3 mm 3 m/s 738 mmHg 92%
    11:00 +19°C° 1.3 mm 3 m/s 737 mmHg 94%
    12:00 +19°C° 1.3 mm 3 m/s 736 mmHg 96%
    13:00 +19°C° 1.8 mm 3 m/s 735 mmHg 95%
    14:00 +19°C° 1.8 mm 4 m/s 735 mmHg 94%
    15:00 +19°C° 1.8 mm 4 m/s 734 mmHg 94%
    16:00 +19°C° 5 mm 4 m/s 733 mmHg 94%
    17:00 +20°C° 5 mm 4 m/s 732 mmHg 95%
    18:00 +20°C° 5 mm 5 m/s 731 mmHg 96%
    19:00 +20°C° 1.9 mm 4 m/s 730 mmHg 96%
    20:00 +19°C° 1.9 mm 4 m/s 729 mmHg 95%
    21:00 +19°C° 1.9 mm 4 m/s 729 mmHg 94%
    22:00 +19°C° 0.8 mm 4 m/s 728 mmHg 95%
    23:00 +19°C° 0.8 mm 5 m/s 727 mmHg 95%

    Demain, 28 Juin, Vendredi

    Heure Température Précipitation Vent Pression Humidité
    00:00 +19°C° 0.8 mm 5 m/s 726 mmHg 96%
    01:00 +17°C° 0 mm 5 m/s 726 mmHg 96%
    02:00 +17°C° 0 mm 5 m/s 726 mmHg 95%
    03:00 +17°C° 0 mm 5 m/s 726 mmHg 95%
    04:00 +16°C° 0.1 mm 5 m/s 726 mmHg 94%
    05:00 +16°C° 0.1 mm 6 m/s 726 mmHg 93%
    06:00 +15°C° 0.1 mm 6 m/s 726 mmHg 92%
    07:00 +15°C° 0 mm 6 m/s 726 mmHg 91%
    08:00 +15°C° 0 mm 6 m/s 726 mmHg 89%
    09:00 +15°C° 0 mm 6 m/s 726 mmHg 88%
    10:00 +15°C° 0.1 mm 6 m/s 726 mmHg 86%
    11:00 +15°C° 0.1 mm 6 m/s 726 mmHg 85%
    12:00 +15°C° 0.1 mm 6 m/s 726 mmHg 83%
    13:00 +15°C° 0.2 mm 6 m/s 726 mmHg 83%
    14:00 +15°C° 0.2 mm 6 m/s 726 mmHg 83%
    15:00 +15°C° 0.2 mm 7 m/s 726 mmHg 82%
    16:00 +15°C° 0.1 mm 7 m/s 725 mmHg 83%
    17:00 +14°C° 0.1 mm 7 m/s 725 mmHg 83%
    18:00 +14°C° 0.1 mm 6 m/s 725 mmHg 84%
    19:00 +13°C° 0.1 mm 6 m/s 725 mmHg 86%
    20:00 +12°C° 0.1 mm 5 m/s 725 mmHg 87%
    21:00 +10°C° 0.1 mm 5 m/s 725 mmHg 89%
    22:00 +10°C° 0.2 mm 5 m/s 725 mmHg 91%
    23:00 +10°C° 0.2 mm 5 m/s 725 mmHg 93%

    Après-demain, 29 Juin, Samedi

    Heure Température Précipitation Vent Pression Humidité
    00:00 +10°C° 0.2 mm 5 m/s 725 mmHg 95%
    01:00 +9°C° 0.4 mm 6 m/s 725 mmHg 95%
    02:00 +9°C° 0.4 mm 6 m/s 725 mmHg 95%
    03:00 +9°C° 0.4 mm 7 m/s 725 mmHg 95%
    04:00 +9°C° 0.2 mm 6 m/s 725 mmHg 95%
    05:00 +9°C° 0.2 mm 6 m/s 725 mmHg 95%
    06:00 +9°C° 0.2 mm 5 m/s 725 mmHg 95%
    07:00 +9°C° 0.2 mm 6 m/s 726 mmHg 95%
    08:00 +10°C° 0.2 mm 6 m/s 726 mmHg 94%
    09:00 +10°C° 0.2 mm 6 m/s 727 mmHg 94%
    10:00 +10°C° 0.3 mm 6 m/s 727 mmHg 94%
    11:00 +10°C° 0.3 mm 7 m/s 728 mmHg 94%
    12:00 +10°C° 0.3 mm 7 m/s 729 mmHg 94%
    13:00 +9°C° 0.2 mm 7 m/s 729 mmHg 94%
    14:00 +9°C° 0.2 mm 7 m/s 730 mmHg 93%
    15:00 +9°C° 0.2 mm 7 m/s 731 mmHg 93%
    16:00 +8°C° 0.2 mm 6 m/s 732 mmHg 93%
    17:00 +8°C° 0.2 mm 6 m/s 732 mmHg 93%
    18:00 +8°C° 0.2 mm 5 m/s 732 mmHg 93%
    19:00 +8°C° 0 mm 5 m/s 733 mmHg 93%
    20:00 +8°C° 0 mm 5 m/s 734 mmHg 92%
    21:00 +8°C° 0 mm 5 m/s 734 mmHg 92%
    22:00 +8°C° 0 mm 4 m/s 734 mmHg 92%
    23:00 +8°C° 0 mm 4 m/s 734 mmHg 92%

    30 Juin, Dimanche

    Heure Température Précipitation Vent Pression Humidité
    00:00 +8°C° 0 mm 4 m/s 734 mmHg 92%
    01:00 +8°C° 0 mm 4 m/s 734 mmHg 91%
    02:00 +8°C° 0 mm 4 m/s 735 mmHg 90%
    03:00 +8°C° 0 mm 4 m/s 735 mmHg 89%
    04:00 +8°C° 0 mm 4 m/s 735 mmHg 88%
    05:00 +8°C° 0 mm 4 m/s 735 mmHg 87%
    06:00 +10°C° 0 mm 4 m/s 736 mmHg 87%
    07:00 +11°C° 0 mm 4 m/s 736 mmHg 83%
    08:00 +12°C° 0 mm 4 m/s 736 mmHg 79%
    09:00 +13°C° 0 mm 5 m/s 736 mmHg 75%
    10:00 +14°C° 0 mm 5 m/s 737 mmHg 70%
    11:00 +16°C° 0 mm 5 m/s 737 mmHg 66%
    12:00 +17°C° 0 mm 5 m/s 737 mmHg 62%
    13:00 +17°C° 0 mm 5 m/s 737 mmHg 60%
    14:00 +19°C° 0 mm 5 m/s 737 mmHg 59%
    15:00 +19°C° 0 mm 5 m/s 737 mmHg 57%
    16:00 +19°C° 0.1 mm 4 m/s 737 mmHg 62%
    17:00 +19°C° 0.1 mm 4 m/s 737 mmHg 66%
    18:00 +19°C° 0.1 mm 3 m/s 737 mmHg 71%
    19:00 +17°C° 0.3 mm 3 m/s 737 mmHg 77%
    20:00 +16°C° 0.3 mm 3 m/s 737 mmHg 84%
    21:00 +13°C° 0.3 mm 3 m/s 738 mmHg 90%
    22:00 +13°C° 0 mm 3 m/s 738 mmHg 91%
    23:00 +12°C° 0 mm 3 m/s 738 mmHg 92%

    1 Juillet, Lundi

    Heure Température Précipitation Vent Pression Humidité
    00:00 +12°C° 0 mm 3 m/s 738 mmHg 93%
    01:00 +11°C° 0 mm 3 m/s 738 mmHg 92%
    02:00 +11°C° 0 mm 3 m/s 739 mmHg 92%
    03:00 +10°C° 0 mm 3 m/s 739 mmHg 92%
    04:00 +11°C° 0 mm 3 m/s 739 mmHg 90%
    05:00 +12°C° 0 mm 2 m/s 739 mmHg 89%
    06:00 +13°C° 0 mm 2 m/s 739 mmHg 87%
    07:00 +14°C° 0 mm 2 m/s 740 mmHg 82%
    08:00 +16°C° 0 mm 2 m/s 740 mmHg 78%
    09:00 +19°C° 0 mm 1 m/s 740 mmHg 74%
    10:00 +19°C° 0 mm 2 m/s 740 mmHg 70%
    11:00 +20°C° 0 mm 2 m/s 739 mmHg 67%
    12:00 +21°C° 0 mm 2 m/s 739 mmHg 64%
    13:00 +21°C° 0 mm 2 m/s 739 mmHg 65%
    14:00 +22°C° 0 mm 3 m/s 739 mmHg 66%
    15:00 +22°C° 0 mm 3 m/s 739 mmHg 67%
    16:00 +22°C° 0 mm 3 m/s 738 mmHg 71%
    17:00 +22°C° 0 mm 3 m/s 738 mmHg 75%
    18:00 +22°C° 0 mm 3 m/s 738 mmHg 78%
    19:00 +21°C° 0 mm 3 m/s 737 mmHg 83%
    20:00 +20°C° 0 mm 3 m/s 737 mmHg 88%
    21:00 +19°C° 0 mm 3 m/s 737 mmHg 93%
    22:00 +18°C° 0 mm 3 m/s 737 mmHg 94%
    23:00 +18°C° 0 mm 3 m/s 737 mmHg 95%

    2 Juillet, Mardi

    Heure Température Précipitation Vent Pression Humidité
    00:00 +17°C° 0 mm 3 m/s 736 mmHg 96%
    01:00 +17°C° 0.3 mm 3 m/s 736 mmHg 96%
    02:00 +17°C° 0.3 mm 3 m/s 736 mmHg 97%
    03:00 +17°C° 0.3 mm 2 m/s 735 mmHg 97%
    04:00 +18°C° 1.1 mm 3 m/s 735 mmHg 97%
    05:00 +18°C° 1.1 mm 3 m/s 735 mmHg 97%
    06:00 +19°C° 1.1 mm 3 m/s 735 mmHg 97%
    07:00 +20°C° 0.3 mm 3 m/s 735 mmHg 93%
    08:00 +21°C° 0.3 mm 3 m/s 735 mmHg 90%
    09:00 +22°C° 0.3 mm 3 m/s 735 mmHg 87%
    10:00 +23°C° 0.2 mm 4 m/s 735 mmHg 80%
    11:00 +25°C° 0.2 mm 5 m/s 735 mmHg 74%
    12:00 +24°C° 0.2 mm 7 m/s 735 mmHg 68%
    13:00 +24°C° 0 mm 7 m/s 735 mmHg 67%
    14:00 +24°C° 0 mm 7 m/s 735 mmHg 66%
    15:00 +23°C° 0 mm 7 m/s 735 mmHg 65%
    16:00 +23°C° 0 mm 6 m/s 735 mmHg 67%
    17:00 +23°C° 0 mm 5 m/s 735 mmHg 69%
    18:00 +22°C° 0 mm 5 m/s 735 mmHg 71%
    19:00 +21°C° 0 mm 4 m/s 735 mmHg 75%
    20:00 +19°C° 0 mm 4 m/s 736 mmHg 78%
    21:00 +18°C° 0 mm 3 m/s 736 mmHg 82%
    22:00 +17°C° 0 mm 3 m/s 736 mmHg 84%
    23:00 +17°C° 0 mm 3 m/s 736 mmHg 87%
    Voir plus